Погода в Вернадовке

Россия / Тамбовская область     53°18′22″N   42°23′20″E
темп.,
°C
ветер,
м/с
пор.,
м/с
влажн.,
%
обл.,
%
осадки,
мм/ч
давл.,
гПа
погр.,
м
12 мая, ср
ср1200:00+8с22821 0.0 102710
03:00+7св349350 0.0 102659
06:00+9всв3698100 1.2 1025215
09:00+10св31098100 3.3 1022364
12:00+13всв71593100 0.9 1020844
15:00+13вюв61393100 2.1 1020797
18:00+11ю2697100 0.8 1020239
21:00+10ююз239749 0.8 1021104
13 мая, чт
чт1300:00+9вюв119532 0.0 102110
03:00+8в34975 0.0 102159
06:00+10в359493 0.0 1020129
09:00+14в259391 0.9 1018323
12:00+17вюв568166 0.1 1017805
15:00+19ююв457421 0.3 1016889
18:00+19ю36780 0.4 1016348
21:00+15ю339060 0.4 101738
14 мая, пт
пт1400:00+13ю2288100 0.0 101821
03:00+13юв3386100 0.0 101927
06:00+14вюв3585100 0.0 1019106
09:00+19вюв477497 0.0 1018363
12:00+23юв566099 0.0 10171052
15:00+25юв566041 0.0 10161511
18:00+22ююв51073100 0.0 1015356
21:00+18ююв41087100 0.0 1016186
15 мая, сб
сб1500:00+17юв498684 0.0 1015134
03:00+16юв6147433 0.0 1014280
06:00+15ююв6157021 0.0 1014321
09:00+20ююв716595 0.0 1014669
12:00+23ю815505 0.0 10151120
15:00+25ююв611535 0.0 10141407
18:00+22ю51163100 0.0 1013391
21:00+18ююв497798 0.0 1013161
16 мая, вс
вс1600:00+16ю3681100 0.0 101392
03:00+15ююв3383100 0.0 101341
06:00+16юз1283100 0.0 101469
09:00+21юв336831 0.0 1014423
12:00+24ю575310 0.0 10141104
15:00+24ююз5855100 0.0 10141367
18:00+22ююз37647 0.0 1013231
21:00+18ююз227382 0.0 101411